TimeEDT,TemperatureF,Dew PointF,Humidity,Sea Level PressureIn,VisibilityMPH,Wind Direction,Wind SpeedMPH,Gust SpeedMPH,PrecipitationIn,Events,Conditions,WindDirDegrees,DateUTC
12:53 AM,64.9,63.0,93,29.97,9.0,Calm,Calm,-,N/A,,Clear,0,2013-03-20 04:53:00
1:53 AM,64.0,63.0,96,29.96,7.0,Calm,Calm,-,N/A,,Clear,0,2013-03-20 05:53:00
2:53 AM,64.0,63.0,96,29.94,6.0,Calm,Calm,-,N/A,,Clear,0,2013-03-20 06:53:00
3:53 AM,63.0,61.0,93,29.93,7.0,Calm,Calm,-,N/A,,Clear,0,2013-03-20 07:53:00
4:04 AM,62.6,60.8,94,29.92,1.8,Calm,Calm,-,N/A,,Clear,0,2013-03-20 08:04:00
4:13 AM,62.6,60.8,94,29.92,3.0,Calm,Calm,-,N/A,,Clear,0,2013-03-20 08:13:00
4:24 AM,62.6,60.8,94,29.92,7.0,Calm,Calm,-,N/A,,Partly Cloudy,0,2013-03-20 08:24:00
4:53 AM,62.1,61.0,96,29.92,5.0,Calm,Calm,-,N/A,,Clear,0,2013-03-20 08:53:00
5:15 AM,62.6,60.8,94,29.93,8.0,Calm,Calm,-,N/A,,Scattered Clouds,0,2013-03-20 09:15:00
5:44 AM,62.6,60.8,94,29.93,2.0,Calm,Calm,-,N/A,,Mostly Cloudy,0,2013-03-20 09:44:00
5:50 AM,60.8,60.8,100,29.93,0.8,Calm,Calm,-,N/A,,Mist,0,2013-03-20 09:50:00
5:53 AM,61.0,61.0,100,29.93,0.5,Calm,Calm,-,N/A,Fog,Fog,0,2013-03-20 09:53:00
6:10 AM,60.8,60.8,100,29.93,0.5,Calm,Calm,-,N/A,Fog,Fog,0,2013-03-20 10:10:00
6:13 AM,60.8,60.8,100,29.93,1.0,Calm,Calm,-,N/A,,Mist,0,2013-03-20 10:13:00
6:19 AM,60.8,60.8,100,29.93,3.0,Calm,Calm,-,N/A,,Overcast,0,2013-03-20 10:19:00
6:28 AM,62.6,60.8,94,29.94,1.5,Calm,Calm,-,N/A,,Overcast,0,2013-03-20 10:28:00
6:33 AM,60.8,60.8,100,29.94,0.5,Calm,Calm,-,N/A,Fog,Fog,0,2013-03-20 10:33:00
6:42 AM,60.8,60.8,100,29.94,1.0,Calm,Calm,-,N/A,,Overcast,0,2013-03-20 10:42:00
6:46 AM,60.8,60.8,100,29.94,3.0,Calm,Calm,-,N/A,,Overcast,0,2013-03-20 10:46:00
6:53 AM,61.0,60.1,97,29.94,1.0,Calm,Calm,-,N/A,,Mist,0,2013-03-20 10:53:00
6:56 AM,60.8,60.8,100,29.94,0.5,Calm,Calm,-,N/A,Fog,Fog,0,2013-03-20 10:56:00
7:01 AM,60.8,60.8,100,29.94,0.2,Calm,Calm,-,N/A,Fog,Fog,0,2013-03-20 11:01:00
7:15 AM,60.8,60.8,100,29.94,0.5,Calm,Calm,-,N/A,Fog,Fog,0,2013-03-20 11:15:00
7:18 AM,60.8,60.8,100,29.94,1.0,Calm,Calm,-,N/A,,Mist,0,2013-03-20 11:18:00
7:20 AM,60.8,60.8,100,29.94,2.5,Calm,Calm,-,N/A,,Overcast,0,2013-03-20 11:20:00
7:27 AM,60.8,60.8,100,29.95,6.0,Calm,Calm,-,N/A,,Overcast,0,2013-03-20 11:27:00
7:40 AM,60.8,60.8,100,29.95,4.0,Calm,Calm,-,N/A,,Overcast,0,2013-03-20 11:40:00
7:43 AM,60.8,60.8,100,29.95,1.8,Calm,Calm,-,N/A,,Mostly Cloudy,0,2013-03-20 11:43:00
7:53 AM,61.0,60.1,97,29.96,2.5,Calm,Calm,-,N/A,,Scattered Clouds,0,2013-03-20 11:53:00
8:00 AM,62.6,60.8,94,29.96,5.0,Calm,Calm,-,N/A,,Partly Cloudy,0,2013-03-20 12:00:00
8:53 AM,64.9,64.0,97,29.99,7.0,NNE,3.5,-,N/A,,Partly Cloudy,30,2013-03-20 12:53:00
9:53 AM,66.9,64.0,90,29.99,8.0,NE,3.5,-,N/A,,Clear,40,2013-03-20 13:53:00
10:53 AM,69.1,63.0,81,30.01,9.0,NNW,5.8,-,N/A,,Mostly Cloudy,340,2013-03-20 14:53:00
11:53 AM,77.0,55.9,48,29.97,10.0,Calm,Calm,-,N/A,,Clear,0,2013-03-20 15:53:00
12:53 PM,79.0,61.0,54,29.93,10.0,SSW,6.9,-,N/A,,Clear,200,2013-03-20 16:53:00
1:53 PM,78.1,64.0,62,29.91,10.0,SW,6.9,-,N/A,,Clear,230,2013-03-20 17:53:00
2:53 PM,75.0,64.0,69,29.91,10.0,West,11.5,-,N/A,,Partly Cloudy,270,2013-03-20 18:53:00
3:53 PM,73.0,59.0,61,29.88,10.0,West,6.9,-,N/A,,Clear,270,2013-03-20 19:53:00
4:53 PM,73.0,62.1,68,29.86,10.0,WSW,8.1,-,N/A,,Clear,250,2013-03-20 20:53:00
5:53 PM,72.0,60.1,66,29.85,10.0,WSW,6.9,-,N/A,,Mostly Cloudy,240,2013-03-20 21:53:00
6:53 PM,71.1,59.0,66,29.87,10.0,West,8.1,-,N/A,,Scattered Clouds,270,2013-03-20 22:53:00
7:53 PM,70.0,61.0,73,29.90,10.0,WNW,6.9,-,N/A,,Mostly Cloudy,290,2013-03-20 23:53:00
8:53 PM,66.9,63.0,87,29.99,3.0,WNW,16.1,25.3,0.07,Rain,Heavy Rain,300,2013-03-21 00:53:00
9:51 PM,66.2,64.4,94,29.92,8.0,Calm,Calm,-,0.02,Rain,Light Rain,0,2013-03-21 01:51:00
9:53 PM,66.0,64.9,96,29.91,8.0,Calm,Calm,-,0.02,,Overcast,0,2013-03-21 01:53:00
10:10 PM,66.2,64.4,94,29.91,7.0,Calm,Calm,-,0.00,Rain,Light Rain,0,2013-03-21 02:10:00
10:32 PM,66.2,64.4,94,29.92,8.0,West,4.6,-,0.00,,Mostly Cloudy,280,2013-03-21 02:32:00
10:40 PM,66.2,64.4,94,29.92,9.0,West,4.6,-,0.00,,Scattered Clouds,280,2013-03-21 02:40:00
10:49 PM,66.2,64.4,94,29.93,9.0,West,5.8,-,0.00,,Mostly Cloudy,280,2013-03-21 02:49:00
10:53 PM,66.0,64.0,93,29.92,9.0,WNW,5.8,-,0.00,,Mostly Cloudy,290,2013-03-21 02:53:00
11:04 PM,66.2,64.4,94,29.92,9.0,WNW,6.9,-,N/A,,Mostly Cloudy,290,2013-03-21 03:04:00
11:19 PM,66.2,62.6,88,29.91,9.0,West,5.8,-,N/A,,Overcast,280,2013-03-21 03:19:00
11:53 PM,64.9,63.0,93,29.90,8.0,NW,4.6,-,N/A,,Overcast,310,2013-03-21 03:53:00